TimeCST,TemperatureF,Dew PointF,Humidity,Sea Level PressureIn,VisibilityMPH,Wind Direction,Wind SpeedMPH,Gust SpeedMPH,PrecipitationIn,Events,Conditions,WindDirDegrees,DateUTC
12:53 AM,19.9,14.0,78,30.15,10.0,WSW,6.9,-,N/A,,Overcast,240,2012-12-30 06:53:00
1:53 AM,19.9,14.0,78,30.17,9.0,WSW,8.1,-,N/A,,Overcast,240,2012-12-30 07:53:00
2:53 AM,19.0,12.9,77,30.17,8.0,WSW,9.2,-,N/A,,Overcast,250,2012-12-30 08:53:00
3:53 AM,19.0,12.9,77,30.18,8.0,West,10.4,-,N/A,,Overcast,260,2012-12-30 09:53:00
4:53 AM,19.0,12.0,74,30.21,9.0,West,12.7,-,N/A,,Overcast,270,2012-12-30 10:53:00
5:53 AM,18.0,12.0,78,30.22,8.0,West,11.5,-,N/A,,Overcast,260,2012-12-30 11:53:00
6:53 AM,18.0,10.9,74,30.23,8.0,West,11.5,-,N/A,,Overcast,270,2012-12-30 12:53:00
7:53 AM,17.1,10.9,77,30.23,6.0,West,10.4,-,N/A,,Haze,260,2012-12-30 13:53:00
8:53 AM,16.0,10.9,81,30.25,4.0,West,9.2,-,N/A,,Haze,270,2012-12-30 14:53:00
9:53 AM,16.0,10.0,77,30.26,5.0,WSW,8.1,-,N/A,,Haze,250,2012-12-30 15:53:00
10:18 AM,16.0,10.0,77,30.23,4.0,WSW,9.2,-,0.00,,Haze,240,2012-12-30 16:18:00
10:53 AM,16.0,10.0,77,30.27,4.0,SW,10.4,-,0.00,,Haze,220,2012-12-30 16:53:00
11:18 AM,15.1,9.0,77,30.21,6.0,SSW,9.2,-,N/A,,Haze,210,2012-12-30 17:18:00
11:53 AM,16.0,8.1,71,30.25,5.0,WSW,9.2,-,N/A,,Haze,240,2012-12-30 17:53:00
12:53 PM,16.0,8.1,71,30.21,5.0,SSW,6.9,-,N/A,,Haze,210,2012-12-30 18:53:00
1:53 PM,16.0,8.1,71,30.19,5.0,SSW,9.2,-,N/A,,Haze,210,2012-12-30 19:53:00
2:53 PM,17.1,9.0,71,30.18,5.0,SSW,8.1,-,N/A,,Haze,200,2012-12-30 20:53:00
3:53 PM,15.1,8.1,74,30.17,5.0,SSW,10.4,-,N/A,,Haze,200,2012-12-30 21:53:00
4:53 PM,12.9,7.0,77,30.15,6.0,SSW,5.8,-,N/A,,Haze,200,2012-12-30 22:53:00
5:53 PM,12.0,7.0,80,30.14,5.0,South,6.9,-,N/A,,Haze,180,2012-12-30 23:53:00
6:53 PM,12.9,7.0,77,30.12,6.0,SSW,5.8,-,N/A,,Haze,200,2012-12-31 00:53:00
7:53 PM,10.0,6.1,84,30.09,5.0,South,5.8,-,N/A,,Clear,180,2012-12-31 01:53:00
8:53 PM,15.1,9.0,77,30.04,6.0,South,5.8,-,N/A,,Haze,190,2012-12-31 02:53:00
9:53 PM,18.0,12.0,78,30.02,6.0,SSW,6.9,-,N/A,,Haze,210,2012-12-31 03:53:00
10:53 PM,21.9,16.0,78,29.98,7.0,SSW,8.1,-,N/A,,Clear,210,2012-12-31 04:53:00
11:53 PM,21.0,16.0,81,29.95,6.0,SW,4.6,-,N/A,,Haze,220,2012-12-31 05:53:00